Time,TemperatureF,DewpointF,PressureIn,WindDirection,WindDirectionDegrees,WindSpeedMPH,WindSpeedGustMPH,Humidity,HourlyPrecipIn,Conditions,Clouds,dailyrainin,SoftwareType,DateUTC
2013-06-16 00:01:00,65.3,60.0,29.88,WSW,244,0.0,0.0,83,0.00,,,0.00,Wunderground v.1.12,2013-06-16 04:01:00,
2013-06-16 00:02:00,65.2,59.9,29.88,WSW,244,0.0,0.0,83,0.00,,,0.00,Wunderground v.1.12,2013-06-16 04:02:00,
2013-06-16 00:04:00,65.2,59.9,29.88,WSW,244,0.0,0.0,83,0.00,,,0.00,Wunderground v.1.12,2013-06-16 04:04:00,
2013-06-16 00:07:00,65.2,59.9,29.88,WSW,244,0.0,0.0,83,0.00,,,0.00,Wunderground v.1.12,2013-06-16 04:07:00,
2013-06-16 00:10:00,65.2,59.9,29.88,WSW,244,0.0,0.0,83,0.00,,,0.00,Wunderground v.1.12,2013-06-16 04:10:00,
2013-06-16 00:16:00,65.0,59.7,29.87,WSW,244,0.0,0.0,83,0.00,,,0.00,Wunderground v.1.12,2013-06-16 04:16:00,
2013-06-16 00:22:00,64.8,59.5,29.87,WSW,244,0.0,0.0,83,0.00,,,0.00,Wunderground v.1.12,2013-06-16 04:22:00,
2013-06-16 00:27:00,64.7,59.8,29.85,WSW,244,0.0,0.0,84,0.00,,,0.00,Wunderground v.1.12,2013-06-16 04:27:00,
2013-06-16 00:32:00,64.7,60.1,29.85,WSW,244,0.0,0.0,85,0.00,,,0.00,Wunderground v.1.12,2013-06-16 04:32:00,
2013-06-16 00:39:00,64.5,59.9,29.85,WSW,244,0.0,0.0,85,0.00,,,0.00,Wunderground v.1.12,2013-06-16 04:39:00,
2013-06-16 00:44:00,64.5,60.2,29.85,WSW,244,0.0,0.0,86,0.00,,,0.00,Wunderground v.1.12,2013-06-16 04:44:00,
2013-06-16 00:50:00,64.3,60.0,29.85,WSW,244,0.0,0.0,86,0.00,,,0.00,Wunderground v.1.12,2013-06-16 04:50:00,
2013-06-16 00:55:00,64.3,60.3,29.85,WSW,244,0.0,0.0,87,0.00,,,0.00,Wunderground v.1.12,2013-06-16 04:55:00,
2013-06-16 01:01:00,64.3,60.3,29.84,WSW,244,0.0,0.0,87,0.00,,,0.00,Wunderground v.1.12,2013-06-16 05:01:00,
2013-06-16 01:07:00,64.3,60.7,29.84,WSW,244,0.0,1.0,88,0.00,,,0.00,Wunderground v.1.12,2013-06-16 05:07:00,
2013-06-16 01:12:00,64.3,60.7,29.84,WSW,244,0.0,0.0,88,0.00,,,0.00,Wunderground v.1.12,2013-06-16 05:12:00,
2013-06-16 01:19:00,64.3,61.0,29.84,WSW,244,0.0,0.0,89,0.00,,,0.00,Wunderground v.1.12,2013-06-16 05:19:00,
2013-06-16 01:25:00,64.5,61.2,29.84,WSW,244,0.0,0.0,89,0.00,,,0.00,Wunderground v.1.12,2013-06-16 05:25:00,
2013-06-16 01:31:00,64.5,61.2,29.83,WSW,244,0.0,0.0,89,0.00,,,0.00,Wunderground v.1.12,2013-06-16 05:31:00,
2013-06-16 01:36:00,64.7,61.4,29.83,WSW,244,0.0,0.0,89,0.00,,,0.00,Wunderground v.1.12,2013-06-16 05:36:00,
2013-06-16 01:42:00,64.7,61.4,29.83,WSW,244,0.0,0.0,89,0.00,,,0.00,Wunderground v.1.12,2013-06-16 05:42:00,
2013-06-16 01:49:00,64.8,61.5,29.83,WSW,244,0.0,0.0,89,0.00,,,0.00,Wunderground v.1.12,2013-06-16 05:49:00,
2013-06-16 01:55:00,64.8,61.5,29.83,WSW,244,0.0,0.0,89,0.00,,,0.00,Wunderground v.1.12,2013-06-16 05:55:00,
2013-06-16 02:01:00,64.8,61.5,29.82,WSW,244,0.0,0.0,89,0.00,,,0.00,Wunderground v.1.12,2013-06-16 06:01:00,
2013-06-16 02:06:00,65.0,61.7,29.82,WSW,244,0.0,0.0,89,0.00,,,0.00,Wunderground v.1.12,2013-06-16 06:06:00,
2013-06-16 02:11:00,65.0,61.7,29.82,WSW,244,0.0,0.0,89,0.00,,,0.00,Wunderground v.1.12,2013-06-16 06:11:00,
2013-06-16 02:16:00,65.2,61.9,29.82,WSW,244,0.0,0.0,89,0.00,,,0.00,Wunderground v.1.12,2013-06-16 06:16:00,
2013-06-16 02:21:00,65.2,61.9,29.82,WSW,244,0.0,1.0,89,0.00,,,0.00,Wunderground v.1.12,2013-06-16 06:21:00,
2013-06-16 02:26:00,65.3,62.0,29.82,WSW,244,0.0,2.0,89,0.00,,,0.00,Wunderground v.1.12,2013-06-16 06:26:00,
2013-06-16 02:31:00,65.3,62.0,29.81,WSW,244,0.0,0.0,89,0.00,,,0.00,Wunderground v.1.12,2013-06-16 06:31:00,
2013-06-16 02:36:00,65.3,62.0,29.81,WSW,244,0.0,0.0,89,0.00,,,0.00,Wunderground v.1.12,2013-06-16 06:36:00,
2013-06-16 02:41:00,65.3,62.0,29.81,WSW,244,0.0,0.0,89,0.00,,,0.00,Wunderground v.1.12,2013-06-16 06:41:00,
2013-06-16 02:46:00,65.3,62.0,29.80,WSW,244,0.0,0.0,89,0.00,,,0.00,Wunderground v.1.12,2013-06-16 06:46:00,
2013-06-16 02:51:00,65.3,62.0,29.80,WSW,244,0.0,0.0,89,0.00,,,0.00,Wunderground v.1.12,2013-06-16 06:51:00,
2013-06-16 02:56:00,65.3,62.0,29.80,WSW,244,0.0,0.0,89,0.00,,,0.00,Wunderground v.1.12,2013-06-16 06:56:00,
2013-06-16 03:01:00,65.3,62.0,29.79,WSW,244,0.0,0.0,89,0.00,,,0.00,Wunderground v.1.12,2013-06-16 07:01:00,
2013-06-16 03:06:00,65.5,62.2,29.79,WSW,244,1.0,2.0,89,0.00,,,0.00,Wunderground v.1.12,2013-06-16 07:06:00,
2013-06-16 03:11:00,65.5,62.2,29.79,WSW,244,1.0,4.0,89,0.00,,,0.00,Wunderground v.1.12,2013-06-16 07:11:00,
2013-06-16 03:16:00,65.6,62.3,29.79,WSW,244,0.0,1.0,89,0.00,,,0.00,Wunderground v.1.12,2013-06-16 07:16:00,
2013-06-16 03:21:00,65.6,62.3,29.79,WSW,244,0.0,0.0,89,0.00,,,0.00,Wunderground v.1.12,2013-06-16 07:21:00,
2013-06-16 03:26:00,65.8,62.5,29.79,WSW,244,0.0,1.0,89,0.00,,,0.00,Wunderground v.1.12,2013-06-16 07:26:00,
2013-06-16 03:31:00,66.0,62.7,29.79,WSW,244,0.0,2.0,89,0.00,,,0.01,Wunderground v.1.12,2013-06-16 07:31:00,
2013-06-16 03:36:00,66.1,63.1,29.79,WSW,244,1.0,4.0,90,0.00,,,0.01,Wunderground v.1.12,2013-06-16 07:36:00,
2013-06-16 03:41:00,66.1,63.1,29.79,WSW,243,1.0,5.0,90,0.00,,,0.01,Wunderground v.1.12,2013-06-16 07:41:00,
2013-06-16 03:46:00,66.0,63.0,29.79,WSW,243,0.0,2.0,90,0.14,,,0.03,Wunderground v.1.12,2013-06-16 07:46:00,
2013-06-16 03:51:00,66.0,63.3,29.79,SW,219,1.0,2.0,91,0.18,,,0.04,Wunderground v.1.12,2013-06-16 07:51:00,
2013-06-16 03:56:00,66.0,63.3,29.79,SW,228,0.0,4.0,91,0.29,,,0.07,Wunderground v.1.12,2013-06-16 07:56:00,
2013-06-16 04:01:00,65.8,63.1,29.78,SW,223,0.0,4.0,91,0.20,,,0.08,Wunderground v.1.12,2013-06-16 08:01:00,
2013-06-16 04:06:00,65.8,63.4,29.78,SW,216,1.0,4.0,92,0.13,,,0.09,Wunderground v.1.12,2013-06-16 08:06:00,
2013-06-16 04:11:00,65.6,63.2,29.78,WSW,239,4.0,5.0,92,0.10,,,0.10,Wunderground v.1.12,2013-06-16 08:11:00,
2013-06-16 04:16:00,65.6,63.2,29.77,WSW,237,0.0,5.0,92,0.09,,,0.11,Wunderground v.1.12,2013-06-16 08:16:00,
2013-06-16 04:21:00,65.6,63.5,29.77,WSW,237,0.0,4.0,93,0.27,,,0.13,Wunderground v.1.12,2013-06-16 08:21:00,
2013-06-16 04:26:00,65.5,63.4,29.77,SW,218,5.0,9.0,93,0.47,,,0.15,Wunderground v.1.12,2013-06-16 08:26:00,
2013-06-16 04:31:00,65.5,63.7,29.79,SW,228,4.0,6.0,94,2.67,,,0.25,Wunderground v.1.12,2013-06-16 08:31:00,
2013-06-16 04:36:00,65.5,63.7,29.79,WSW,239,0.0,5.0,94,0.32,,,0.31,Wunderground v.1.12,2013-06-16 08:36:00,
2013-06-16 04:41:00,65.3,63.5,29.79,SW,228,4.0,8.0,94,0.10,,,0.31,Wunderground v.1.12,2013-06-16 08:41:00,
2013-06-16 04:46:00,65.5,64.0,29.77,SW,223,0.0,5.0,95,0.06,,,0.32,Wunderground v.1.12,2013-06-16 08:46:00,
2013-06-16 04:51:00,65.5,64.0,29.77,SW,226,0.0,4.0,95,0.06,,,0.32,Wunderground v.1.12,2013-06-16 08:51:00,
2013-06-16 04:56:00,65.3,63.8,29.77,SW,226,0.0,1.0,95,0.05,,,0.32,Wunderground v.1.12,2013-06-16 08:56:00,
2013-06-16 05:01:00,65.3,63.8,29.74,SW,226,5.0,5.0,95,0.00,,,0.32,Wunderground v.1.12,2013-06-16 09:01:00,
2013-06-16 05:06:00,65.5,64.3,29.74,WSW,243,2.0,4.0,96,0.00,,,0.32,Wunderground v.1.12,2013-06-16 09:06:00,
2013-06-16 05:11:00,65.5,64.3,29.74,SW,227,2.0,6.0,96,0.00,,,0.32,Wunderground v.1.12,2013-06-16 09:11:00,
2013-06-16 05:16:00,65.3,64.1,29.73,SW,231,1.0,6.0,96,0.00,,,0.32,Wunderground v.1.12,2013-06-16 09:16:00,
2013-06-16 05:21:00,65.3,64.1,29.73,SW,231,1.0,2.0,96,0.00,,,0.32,Wunderground v.1.12,2013-06-16 09:21:00,
2013-06-16 05:26:00,65.3,64.1,29.73,SW,235,0.0,5.0,96,0.00,,,0.32,Wunderground v.1.12,2013-06-16 09:26:00,
2013-06-16 05:31:00,65.3,64.1,29.73,WSW,248,1.0,5.0,96,0.00,,,0.32,Wunderground v.1.12,2013-06-16 09:31:00,
2013-06-16 05:36:00,65.3,64.1,29.73,WSW,245,0.0,4.0,96,0.00,,,0.32,Wunderground v.1.12,2013-06-16 09:36:00,
2013-06-16 05:41:00,65.5,64.3,29.73,SW,225,4.0,5.0,96,0.00,,,0.32,Wunderground v.1.12,2013-06-16 09:41:00,
2013-06-16 05:46:00,65.5,64.3,29.73,SW,229,4.0,5.0,96,0.00,,,0.32,Wunderground v.1.12,2013-06-16 09:46:00,
2013-06-16 05:51:00,65.5,64.3,29.73,SW,231,2.0,5.0,96,0.00,,,0.32,Wunderground v.1.12,2013-06-16 09:51:00,
2013-06-16 05:56:00,65.5,64.3,29.73,SW,231,0.0,5.0,96,0.00,,,0.32,Wunderground v.1.12,2013-06-16 09:56:00,
2013-06-16 06:01:00,65.5,64.3,29.72,WSW,239,0.0,5.0,96,0.00,,,0.32,Wunderground v.1.12,2013-06-16 10:01:00,
2013-06-16 06:06:00,65.5,64.3,29.72,West,260,0.0,2.0,96,0.00,,,0.32,Wunderground v.1.12,2013-06-16 10:06:00,
2013-06-16 06:11:00,65.6,64.4,29.72,WSW,252,2.0,8.0,96,0.00,,,0.32,Wunderground v.1.12,2013-06-16 10:11:00,
2013-06-16 06:16:00,65.6,64.4,29.72,SW,214,2.0,7.0,96,0.00,,,0.32,Wunderground v.1.12,2013-06-16 10:16:00,
2013-06-16 06:21:00,65.6,64.7,29.72,West,267,4.0,6.0,97,0.00,,,0.32,Wunderground v.1.12,2013-06-16 10:21:00,
2013-06-16 06:26:00,65.6,64.7,29.72,SW,227,0.0,6.0,97,0.00,,,0.32,Wunderground v.1.12,2013-06-16 10:26:00,
2013-06-16 06:31:00,65.6,64.4,29.72,West,279,4.0,5.0,96,0.00,,,0.32,Wunderground v.1.12,2013-06-16 10:31:00,
2013-06-16 06:36:00,65.6,64.7,29.72,SW,225,5.0,6.0,97,0.00,,,0.32,Wunderground v.1.12,2013-06-16 10:36:00,
2013-06-16 06:41:00,65.8,64.9,29.72,WSW,243,2.0,8.0,97,0.00,,,0.32,Wunderground v.1.12,2013-06-16 10:41:00,
2013-06-16 06:46:00,65.8,64.9,29.72,West,262,6.0,7.0,97,0.00,,,0.32,Wunderground v.1.12,2013-06-16 10:46:00,
2013-06-16 06:51:00,65.8,64.9,29.72,SW,227,9.0,9.0,97,0.00,,,0.32,Wunderground v.1.12,2013-06-16 10:51:00,
2013-06-16 06:56:00,65.8,64.6,29.72,West,261,2.0,6.0,96,0.00,,,0.32,Wunderground v.1.12,2013-06-16 10:56:00,
2013-06-16 07:02:00,65.8,64.9,29.72,West,261,2.0,7.0,97,0.00,,,0.32,Wunderground v.1.12,2013-06-16 11:02:00,
2013-06-16 07:07:00,65.8,64.6,29.72,SW,234,2.0,6.0,96,0.00,,,0.32,Wunderground v.1.12,2013-06-16 11:07:00,
2013-06-16 07:12:00,65.8,64.6,29.72,SW,230,4.0,5.0,96,0.00,,,0.32,Wunderground v.1.12,2013-06-16 11:12:00,
2013-06-16 07:17:00,66.0,64.8,29.73,West,261,4.0,8.0,96,0.00,,,0.32,Wunderground v.1.12,2013-06-16 11:17:00,
2013-06-16 07:21:00,66.0,64.8,29.73,West,263,1.0,6.0,96,0.00,,,0.32,Wunderground v.1.12,2013-06-16 11:21:00,
2013-06-16 07:26:00,66.0,64.8,29.73,WSW,243,6.0,11.0,96,0.00,,,0.32,Wunderground v.1.12,2013-06-16 11:26:00,
2013-06-16 07:31:00,66.0,64.8,29.73,SW,219,5.0,6.0,96,0.00,,,0.32,Wunderground v.1.12,2013-06-16 11:31:00,
2013-06-16 07:36:00,66.1,64.9,29.73,WNW,290,7.0,11.0,96,0.00,,,0.32,Wunderground v.1.12,2013-06-16 11:36:00,
2013-06-16 07:41:00,66.3,65.1,29.73,West,262,5.0,7.0,96,0.00,,,0.32,Wunderground v.1.12,2013-06-16 11:41:00,
2013-06-16 07:46:00,66.3,65.1,29.73,West,268,7.0,9.0,96,0.00,,,0.32,Wunderground v.1.12,2013-06-16 11:46:00,
2013-06-16 07:52:00,66.3,65.1,29.73,West,262,7.0,9.0,96,0.00,,,0.32,Wunderground v.1.12,2013-06-16 11:52:00,
2013-06-16 07:57:00,66.4,65.2,29.73,West,263,5.0,8.0,96,0.00,,,0.32,Wunderground v.1.12,2013-06-16 11:57:00,
2013-06-16 08:01:00,66.6,65.1,29.73,SW,224,2.0,7.0,95,0.00,,,0.32,Wunderground v.1.12,2013-06-16 12:01:00,
2013-06-16 08:07:00,66.8,65.3,29.73,West,266,6.0,11.0,95,0.00,,,0.32,Wunderground v.1.12,2013-06-16 12:07:00,
2013-06-16 08:11:00,66.8,65.3,29.73,West,273,5.0,8.0,95,0.00,,,0.32,Wunderground v.1.12,2013-06-16 12:11:00,
2013-06-16 08:16:00,66.9,65.4,29.73,West,262,4.0,8.0,95,0.00,,,0.32,Wunderground v.1.12,2013-06-16 12:16:00,
2013-06-16 08:22:00,67.1,65.3,29.73,West,264,5.0,9.0,94,0.00,,,0.32,Wunderground v.1.12,2013-06-16 12:22:00,
2013-06-16 08:27:00,67.4,65.6,29.74,WSW,255,10.0,11.0,94,0.00,,,0.32,Wunderground v.1.12,2013-06-16 12:27:00,
2013-06-16 08:32:00,67.4,65.3,29.74,West,271,0.0,9.0,93,0.00,,,0.32,Wunderground v.1.12,2013-06-16 12:32:00,
2013-06-16 08:37:00,67.6,65.5,29.74,WSW,251,2.0,6.0,93,0.00,,,0.32,Wunderground v.1.12,2013-06-16 12:37:00,
2013-06-16 08:42:00,67.6,65.5,29.75,West,275,3.0,12.0,93,0.00,,,0.32,Wunderground v.1.12,2013-06-16 12:42:00,
2013-06-16 08:47:00,67.6,65.2,29.75,NW,305,7.0,9.0,92,0.00,,,0.32,Wunderground v.1.12,2013-06-16 12:47:00,
2013-06-16 08:52:00,67.8,65.4,29.75,WSW,241,8.0,10.0,92,0.00,,,0.32,Wunderground v.1.12,2013-06-16 12:52:00,
2013-06-16 08:57:00,67.9,65.2,29.75,West,268,2.0,9.0,91,0.00,,,0.32,Wunderground v.1.12,2013-06-16 12:57:00,
2013-06-16 09:02:00,68.1,65.4,29.75,West,260,8.0,10.0,91,0.00,,,0.32,Wunderground v.1.12,2013-06-16 13:02:00,
2013-06-16 09:07:00,68.3,65.3,29.75,NW,314,6.0,10.0,90,0.00,,,0.32,Wunderground v.1.12,2013-06-16 13:07:00,
2013-06-16 09:12:00,68.3,65.3,29.76,West,273,6.0,9.0,90,0.00,,,0.32,Wunderground v.1.12,2013-06-16 13:12:00,
2013-06-16 09:17:00,68.3,64.9,29.76,WSW,249,4.0,11.0,89,0.00,,,0.32,Wunderground v.1.12,2013-06-16 13:17:00,
2013-06-16 09:22:00,68.3,64.9,29.76,West,273,8.0,9.0,89,0.00,,,0.32,Wunderground v.1.12,2013-06-16 13:22:00,
2013-06-16 09:27:00,68.3,64.6,29.77,WNW,298,2.0,9.0,88,0.00,,,0.32,Wunderground v.1.12,2013-06-16 13:27:00,
2013-06-16 09:32:00,68.3,64.3,29.77,WNW,285,4.0,9.0,87,0.00,,,0.32,Wunderground v.1.12,2013-06-16 13:32:00,
2013-06-16 09:37:00,68.3,64.3,29.77,West,262,5.0,10.0,87,0.00,,,0.32,Wunderground v.1.12,2013-06-16 13:37:00,
2013-06-16 09:42:00,68.4,64.4,29.78,WNW,298,5.0,10.0,87,0.00,,,0.32,Wunderground v.1.12,2013-06-16 13:42:00,
2013-06-16 09:47:00,68.6,64.2,29.78,NW,307,9.0,10.0,86,0.00,,,0.00,Wunderground v.1.12,2013-06-16 13:47:00,
2013-06-16 09:52:00,68.8,64.4,29.78,NW,304,8.0,10.0,86,0.00,,,0.00,Wunderground v.1.12,2013-06-16 13:52:00,
2013-06-16 09:57:00,69.1,64.4,29.78,WNW,288,3.0,12.0,85,0.00,,,0.00,Wunderground v.1.12,2013-06-16 13:57:00,
2013-06-16 10:02:00,69.3,64.6,29.78,West,271,9.0,10.0,85,0.00,,,0.00,Wunderground v.1.12,2013-06-16 14:02:00,
2013-06-16 10:07:00,69.4,64.4,29.78,West,273,4.0,8.0,84,0.00,,,0.00,Wunderground v.1.12,2013-06-16 14:07:00,
2013-06-16 10:12:00,69.4,64.0,29.78,WSW,239,7.0,12.0,83,0.00,,,0.00,Wunderground v.1.12,2013-06-16 14:12:00,
2013-06-16 10:17:00,69.8,64.4,29.78,NW,306,5.0,8.0,83,0.00,,,0.00,Wunderground v.1.12,2013-06-16 14:17:00,
2013-06-16 10:22:00,70.1,64.7,29.78,WSW,256,8.0,10.0,83,0.00,,,0.00,Wunderground v.1.12,2013-06-16 14:22:00,
2013-06-16 10:27:00,70.3,64.2,29.78,SW,236,5.0,11.0,81,0.00,,,0.00,Wunderground v.1.12,2013-06-16 14:27:00,
2013-06-16 10:32:00,70.4,63.9,29.78,West,262,11.0,14.0,80,0.00,,,0.00,Wunderground v.1.12,2013-06-16 14:32:00,
2013-06-16 10:37:00,70.6,64.1,29.78,West,268,7.0,11.0,80,0.00,,,0.00,Wunderground v.1.12,2013-06-16 14:37:00,
2013-06-16 10:42:00,70.8,64.0,29.78,West,273,1.0,10.0,79,0.00,,,0.00,Wunderground v.1.12,2013-06-16 14:42:00,
2013-06-16 10:47:00,71.1,64.3,29.78,NW,307,7.0,8.0,79,0.00,,,0.00,Wunderground v.1.12,2013-06-16 14:47:00,
2013-06-16 10:52:00,71.3,64.1,29.78,West,275,3.0,12.0,78,0.00,,,0.00,Wunderground v.1.12,2013-06-16 14:52:00,
2013-06-16 10:57:00,71.5,64.3,29.78,West,267,7.0,7.0,78,0.00,,,0.00,Wunderground v.1.12,2013-06-16 14:57:00,
2013-06-16 11:02:00,71.5,63.9,29.78,WNW,284,7.0,12.0,77,0.00,,,0.00,Wunderground v.1.12,2013-06-16 15:02:00,
2013-06-16 11:07:00,71.6,64.0,29.78,WNW,294,6.0,12.0,77,0.00,,,0.00,Wunderground v.1.12,2013-06-16 15:07:00,
2013-06-16 11:12:00,72.0,63.6,29.78,NW,304,5.0,11.0,75,0.00,,,0.00,Wunderground v.1.12,2013-06-16 15:12:00,
2013-06-16 11:17:00,72.7,63.9,29.78,WNW,288,7.0,8.0,74,0.00,,,0.00,Wunderground v.1.12,2013-06-16 15:17:00,
2013-06-16 11:22:00,73.2,63.2,29.78,WNW,289,2.0,10.0,71,0.00,,,0.00,Wunderground v.1.12,2013-06-16 15:22:00,
2013-06-16 11:27:00,73.3,62.9,29.79,WNW,295,8.0,15.0,70,0.00,,,0.00,Wunderground v.1.12,2013-06-16 15:27:00,
2013-06-16 11:32:00,73.5,62.7,29.79,West,268,10.0,13.0,69,0.00,,,0.00,Wunderground v.1.12,2013-06-16 15:32:00,
2013-06-16 11:37:00,73.5,62.7,29.79,NW,319,9.0,14.0,69,0.00,,,0.00,Wunderground v.1.12,2013-06-16 15:37:00,
2013-06-16 11:42:00,73.5,63.1,29.78,WSW,252,8.0,9.0,70,0.00,,,0.00,Wunderground v.1.12,2013-06-16 15:42:00,
2013-06-16 11:47:00,73.3,62.9,29.78,WNW,289,7.0,10.0,70,0.00,,,0.00,Wunderground v.1.12,2013-06-16 15:47:00,
2013-06-16 11:52:00,73.5,63.9,29.78,West,275,5.0,11.0,72,0.00,,,0.00,Wunderground v.1.12,2013-06-16 15:52:00,
2013-06-16 11:57:00,73.5,63.1,29.79,WNW,291,5.0,8.0,70,0.00,,,0.00,Wunderground v.1.12,2013-06-16 15:57:00,
2013-06-16 12:02:00,73.5,63.1,29.79,WNW,300,4.0,8.0,70,0.00,,,0.00,Wunderground v.1.12,2013-06-16 16:02:00,
2013-06-16 12:07:00,74.2,63.8,29.79,WSW,253,9.0,10.0,70,0.00,,,0.00,Wunderground v.1.12,2013-06-16 16:07:00,
2013-06-16 12:12:00,74.4,62.7,29.79,West,262,6.0,12.0,67,0.00,,,0.00,Wunderground v.1.12,2013-06-16 16:12:00,
2013-06-16 12:18:00,74.4,63.1,29.79,NW,304,5.0,11.0,68,0.00,,,0.00,Wunderground v.1.12,2013-06-16 16:18:00,
2013-06-16 12:23:00,74.7,61.7,29.79,NNW,331,4.0,11.0,64,0.00,,,0.00,Wunderground v.1.12,2013-06-16 16:23:00,
2013-06-16 12:28:00,74.9,63.2,29.80,West,273,5.0,10.0,67,0.00,,,0.00,Wunderground v.1.12,2013-06-16 16:28:00,
2013-06-16 12:33:00,74.9,63.2,29.80,NW,316,6.0,10.0,67,0.00,,,0.00,Wunderground v.1.12,2013-06-16 16:33:00,
2013-06-16 12:38:00,75.1,62.5,29.80,West,268,7.0,9.0,65,0.00,,,0.00,Wunderground v.1.12,2013-06-16 16:38:00,
2013-06-16 12:43:00,74.9,62.3,29.80,West,267,8.0,10.0,65,0.00,,,0.00,Wunderground v.1.12,2013-06-16 16:43:00,
2013-06-16 12:48:00,75.4,63.2,29.80,WNW,301,7.0,9.0,66,0.00,,,0.00,Wunderground v.1.12,2013-06-16 16:48:00,
2013-06-16 12:53:00,75.8,62.3,29.80,NNW,341,7.0,15.0,63,0.00,,,0.00,Wunderground v.1.12,2013-06-16 16:53:00,
2013-06-16 12:58:00,75.8,63.2,29.79,WNW,287,7.0,12.0,65,0.00,,,0.00,Wunderground v.1.12,2013-06-16 16:58:00,
2013-06-16 13:03:00,76.3,63.7,29.79,WSW,258,7.0,10.0,65,0.00,,,0.00,Wunderground v.1.12,2013-06-16 17:03:00,
2013-06-16 13:08:00,77.0,63.9,29.79,WNW,284,6.0,10.0,64,0.00,,,0.00,Wunderground v.1.12,2013-06-16 17:08:00,
2013-06-16 13:13:00,77.0,63.4,29.80,WSW,251,6.0,10.0,63,0.00,,,0.00,Wunderground v.1.12,2013-06-16 17:13:00,
2013-06-16 13:18:00,76.8,64.1,29.80,NW,323,6.0,13.0,65,0.00,,,0.00,Wunderground v.1.12,2013-06-16 17:18:00,
2013-06-16 13:23:00,77.0,64.3,29.80,WNW,295,0.0,11.0,65,0.00,,,0.00,Wunderground v.1.12,2013-06-16 17:23:00,
2013-06-16 13:28:00,77.6,64.5,29.80,West,260,0.0,8.0,64,0.00,,,0.00,Wunderground v.1.12,2013-06-16 17:28:00,
2013-06-16 13:33:00,77.4,63.8,29.80,WSW,253,8.0,8.0,63,0.00,,,0.00,Wunderground v.1.12,2013-06-16 17:33:00,
2013-06-16 13:38:00,77.7,64.5,29.80,NW,308,2.0,9.0,64,0.00,,,0.00,Wunderground v.1.12,2013-06-16 17:38:00,
2013-06-16 13:43:00,77.6,62.1,29.80,NNW,335,1.0,11.0,59,0.00,,,0.00,Wunderground v.1.12,2013-06-16 17:43:00,
2013-06-16 13:48:00,77.4,63.4,29.80,WNW,297,0.0,6.0,62,0.00,,,0.00,Wunderground v.1.12,2013-06-16 17:48:00,
2013-06-16 13:53:00,77.7,63.2,29.80,WNW,298,0.0,7.0,61,0.00,,,0.00,Wunderground v.1.12,2013-06-16 17:53:00,
2013-06-16 13:58:00,77.6,63.1,29.80,WNW,283,5.0,7.0,61,0.00,,,0.00,Wunderground v.1.12,2013-06-16 17:58:00,
2013-06-16 14:03:00,77.7,62.7,29.80,West,260,5.0,11.0,60,0.00,,,0.00,Wunderground v.1.12,2013-06-16 18:03:00,
2013-06-16 14:08:00,78.1,62.6,29.80,WNW,301,4.0,9.0,59,0.00,,,0.00,Wunderground v.1.12,2013-06-16 18:08:00,
2013-06-16 14:13:00,78.3,64.7,29.79,West,271,5.0,7.0,63,0.00,,,0.00,Wunderground v.1.12,2013-06-16 18:13:00,
2013-06-16 14:18:00,78.3,64.2,29.79,NW,315,3.0,8.0,62,0.00,,,0.00,Wunderground v.1.12,2013-06-16 18:18:00,
2013-06-16 14:23:00,78.5,63.9,29.79,WSW,258,4.0,10.0,61,0.00,,,0.00,Wunderground v.1.12,2013-06-16 18:23:00,
2013-06-16 14:28:00,78.5,63.5,29.79,WNW,295,4.0,10.0,60,0.00,,,0.00,Wunderground v.1.12,2013-06-16 18:28:00,
2013-06-16 14:33:00,78.3,63.7,29.79,WNW,288,0.0,8.0,61,0.00,,,0.00,Wunderground v.1.12,2013-06-16 18:33:00,
2013-06-16 14:38:00,78.6,64.0,29.79,WNW,288,5.0,5.0,61,0.00,,,0.00,Wunderground v.1.12,2013-06-16 18:38:00,
2013-06-16 14:43:00,79.2,63.6,29.79,WNW,282,5.0,10.0,59,0.00,,,0.00,Wunderground v.1.12,2013-06-16 18:43:00,
2013-06-16 14:47:00,79.6,63.5,29.79,WSW,253,0.0,9.0,58,0.00,,,0.00,Wunderground v.1.12,2013-06-16 18:47:00,
2013-06-16 14:52:00,79.2,63.1,29.79,WSW,254,0.0,10.0,58,0.00,,,0.00,Wunderground v.1.12,2013-06-16 18:52:00,
2013-06-16 14:57:00,79.2,63.6,29.78,SW,234,0.0,6.0,59,0.00,,,0.00,Wunderground v.1.12,2013-06-16 18:57:00,
2013-06-16 15:02:00,79.6,64.0,29.78,WNW,283,0.0,6.0,59,0.00,,,0.00,Wunderground v.1.12,2013-06-16 19:02:00,
2013-06-16 15:07:00,79.9,63.8,29.78,West,276,5.0,9.0,58,0.00,,,0.00,Wunderground v.1.12,2013-06-16 19:07:00,
2013-06-16 15:12:00,80.3,65.1,29.78,WNW,283,0.0,4.0,60,0.00,,,0.00,Wunderground v.1.12,2013-06-16 19:12:00,
2013-06-16 15:17:00,80.7,64.1,29.78,WNW,297,4.0,8.0,57,0.00,,,0.00,Wunderground v.1.12,2013-06-16 19:17:00,
2013-06-16 15:22:00,81.1,64.4,29.78,SW,225,0.0,9.0,57,0.00,,,0.00,Wunderground v.1.12,2013-06-16 19:22:00,
2013-06-16 15:27:00,81.1,63.9,29.78,NNW,329,1.0,6.0,56,0.00,,,0.00,Wunderground v.1.12,2013-06-16 19:27:00,
2013-06-16 15:32:00,81.2,64.5,29.78,WSW,238,5.0,10.0,57,0.00,,,0.00,Wunderground v.1.12,2013-06-16 19:32:00,
2013-06-16 15:37:00,81.1,63.4,29.78,West,262,2.0,6.0,55,0.00,,,0.00,Wunderground v.1.12,2013-06-16 19:37:00,
2013-06-16 15:42:00,80.9,63.7,29.78,West,270,2.0,8.0,56,0.00,,,0.00,Wunderground v.1.12,2013-06-16 19:42:00,
2013-06-16 15:47:00,81.1,64.4,29.78,WSW,256,6.0,9.0,57,0.00,,,0.00,Wunderground v.1.12,2013-06-16 19:47:00,
2013-06-16 15:52:00,81.2,64.0,29.78,WNW,287,1.0,7.0,56,0.00,,,0.00,Wunderground v.1.12,2013-06-16 19:52:00,
2013-06-16 15:57:00,81.6,64.4,29.78,NW,308,0.0,6.0,56,0.00,,,0.00,Wunderground v.1.12,2013-06-16 19:57:00,
2013-06-16 16:02:00,81.8,64.6,29.78,West,259,0.0,8.0,56,0.00,,,0.00,Wunderground v.1.12,2013-06-16 20:02:00,
2013-06-16 16:08:00,82.2,66.0,29.78,WNW,283,6.0,8.0,58,0.00,,,0.00,Wunderground v.1.12,2013-06-16 20:08:00,
2013-06-16 16:13:00,82.0,64.8,29.78,WNW,293,5.0,9.0,56,0.00,,,0.00,Wunderground v.1.12,2013-06-16 20:13:00,
2013-06-16 16:18:00,82.0,64.2,29.78,WSW,241,4.0,8.0,55,0.00,,,0.00,Wunderground v.1.12,2013-06-16 20:18:00,
2013-06-16 16:23:00,82.2,64.9,29.78,WSW,255,5.0,8.0,56,0.00,,,0.00,Wunderground v.1.12,2013-06-16 20:23:00,
2013-06-16 16:28:00,82.4,65.1,29.78,WNW,303,5.0,10.0,56,0.00,,,0.00,Wunderground v.1.12,2013-06-16 20:28:00,
2013-06-16 16:33:00,82.4,64.1,29.78,WSW,246,1.0,9.0,54,0.00,,,0.00,Wunderground v.1.12,2013-06-16 20:33:00,
2013-06-16 16:38:00,82.4,63.5,29.78,WNW,286,0.0,8.0,53,0.00,,,0.00,Wunderground v.1.12,2013-06-16 20:38:00,
2013-06-16 16:43:00,82.0,63.7,29.78,WNW,284,5.0,7.0,54,0.00,,,0.00,Wunderground v.1.12,2013-06-16 20:43:00,
2013-06-16 16:48:00,82.2,63.9,29.78,West,271,0.0,6.0,54,0.00,,,0.00,Wunderground v.1.12,2013-06-16 20:48:00,
2013-06-16 16:53:00,82.6,63.7,29.78,West,269,5.0,6.0,53,0.00,,,0.00,Wunderground v.1.12,2013-06-16 20:53:00,
2013-06-16 16:58:00,82.6,62.6,29.78,West,266,4.0,8.0,51,0.00,,,0.00,Wunderground v.1.12,2013-06-16 20:58:00,
2013-06-16 17:02:00,82.6,63.2,29.78,West,262,0.0,9.0,52,0.00,,,0.00,Wunderground v.1.12,2013-06-16 21:02:00,
2013-06-16 17:07:00,82.6,63.7,29.78,West,264,2.0,7.0,53,0.00,,,0.00,Wunderground v.1.12,2013-06-16 21:07:00,
2013-06-16 17:12:00,82.8,63.9,29.78,West,275,3.0,11.0,53,0.00,,,0.00,Wunderground v.1.12,2013-06-16 21:12:00,
2013-06-16 17:18:00,83.2,63.7,29.78,West,281,5.0,7.0,52,0.00,,,0.00,Wunderground v.1.12,2013-06-16 21:18:00,
2013-06-16 17:22:00,83.0,64.1,29.78,WSW,241,4.0,8.0,53,0.00,,,0.00,Wunderground v.1.12,2013-06-16 21:22:00,
2013-06-16 17:28:00,82.6,63.7,29.78,WNW,283,0.0,7.0,53,0.00,,,0.00,Wunderground v.1.12,2013-06-16 21:28:00,
2013-06-16 17:33:00,82.8,63.4,29.78,WSW,249,2.0,7.0,52,0.00,,,0.00,Wunderground v.1.12,2013-06-16 21:33:00,
2013-06-16 17:37:00,83.0,61.9,29.78,WSW,258,5.0,9.0,49,0.00,,,0.00,Wunderground v.1.12,2013-06-16 21:37:00,
2013-06-16 17:42:00,82.2,61.7,29.78,West,266,2.0,10.0,50,0.00,,,0.00,Wunderground v.1.12,2013-06-16 21:42:00,
2013-06-16 17:48:00,82.2,62.3,29.78,West,279,2.0,7.0,51,0.00,,,0.00,Wunderground v.1.12,2013-06-16 21:48:00,
2013-06-16 17:53:00,82.0,62.6,29.78,WNW,303,4.0,11.0,52,0.00,,,0.00,Wunderground v.1.12,2013-06-16 21:53:00,
2013-06-16 17:58:00,82.0,62.6,29.78,WSW,258,0.0,9.0,52,0.00,,,0.00,Wunderground v.1.12,2013-06-16 21:58:00,
2013-06-16 18:03:00,82.4,63.5,29.78,WNW,291,0.0,6.0,53,0.00,,,0.00,Wunderground v.1.12,2013-06-16 22:03:00,
2013-06-16 18:08:00,82.8,62.3,29.78,WNW,283,2.0,5.0,50,0.00,,,0.00,Wunderground v.1.12,2013-06-16 22:08:00,
2013-06-16 18:13:00,83.0,63.0,29.77,WNW,289,0.0,8.0,51,0.00,,,0.00,Wunderground v.1.12,2013-06-16 22:13:00,
2013-06-16 18:18:00,83.0,61.9,29.77,West,264,0.0,7.0,49,0.00,,,0.00,Wunderground v.1.12,2013-06-16 22:18:00,
2013-06-16 18:23:00,82.8,60.5,29.77,West,265,4.0,12.0,47,0.00,,,0.00,Wunderground v.1.12,2013-06-16 22:23:00,
2013-06-16 18:28:00,82.6,61.5,29.77,WNW,299,0.0,9.0,49,0.00,,,0.00,Wunderground v.1.12,2013-06-16 22:28:00,
2013-06-16 18:32:00,82.4,61.9,29.77,WNW,292,11.0,11.0,50,0.00,,,0.00,Wunderground v.1.12,2013-06-16 22:32:00,
2013-06-16 18:38:00,82.2,61.1,29.77,WNW,294,2.0,11.0,49,0.00,,,0.00,Wunderground v.1.12,2013-06-16 22:38:00,
2013-06-16 18:43:00,82.2,61.1,29.78,NW,310,0.0,9.0,49,0.00,,,0.00,Wunderground v.1.12,2013-06-16 22:43:00,
2013-06-16 18:49:00,81.8,60.2,29.78,West,266,2.0,12.0,48,0.00,,,0.00,Wunderground v.1.12,2013-06-16 22:49:00,
2013-06-16 18:54:00,81.6,60.6,29.78,WNW,287,3.0,12.0,49,0.00,,,0.00,Wunderground v.1.12,2013-06-16 22:54:00,
2013-06-16 19:00:00,81.2,59.6,29.78,WSW,255,4.0,4.0,48,0.00,,,0.00,Wunderground v.1.12,2013-06-16 23:00:00,
2013-06-16 19:04:00,81.1,60.1,29.78,WNW,291,2.0,10.0,49,0.00,,,0.00,Wunderground v.1.12,2013-06-16 23:04:00,
2013-06-16 19:09:00,80.7,54.1,29.78,WNW,298,4.0,13.0,40,0.00,,,0.00,Wunderground v.1.12,2013-06-16 23:09:00,
2013-06-16 19:15:00,80.5,51.1,29.78,NW,320,3.0,4.0,36,0.00,,,0.00,Wunderground v.1.12,2013-06-16 23:15:00,
2013-06-16 19:20:00,80.9,50.7,29.78,NW,320,1.0,9.0,35,0.00,,,0.00,Wunderground v.1.12,2013-06-16 23:20:00,
2013-06-16 19:25:00,80.7,49.7,29.78,West,262,8.0,8.0,34,0.00,,,0.00,Wunderground v.1.12,2013-06-16 23:25:00,
2013-06-16 19:30:00,80.5,49.5,29.79,West,280,3.0,6.0,34,0.00,,,0.00,Wunderground v.1.12,2013-06-16 23:30:00,
2013-06-16 19:35:00,80.3,52.4,29.79,West,268,5.0,5.0,38,0.00,,,0.00,Wunderground v.1.12,2013-06-16 23:35:00,
2013-06-16 19:40:00,79.9,52.0,29.79,WNW,283,4.0,5.0,38,0.00,,,0.00,Wunderground v.1.12,2013-06-16 23:40:00,
2013-06-16 19:45:00,79.6,53.1,29.80,WNW,286,3.0,4.0,40,0.00,,,0.00,Wunderground v.1.12,2013-06-16 23:45:00,
2013-06-16 19:50:00,79.4,52.3,29.80,WNW,283,2.0,6.0,39,0.00,,,0.00,Wunderground v.1.12,2013-06-16 23:50:00,
2013-06-16 19:55:00,79.0,52.6,29.80,West,268,6.0,6.0,40,0.00,,,0.00,Wunderground v.1.12,2013-06-16 23:55:00,
2013-06-16 20:00:00,78.8,52.4,29.80,WNW,293,4.0,6.0,40,0.00,,,0.00,Wunderground v.1.12,2013-06-17 00:00:00,
2013-06-16 20:05:00,78.6,50.9,29.80,NNW,333,7.0,7.0,38,0.00,,,0.00,Wunderground v.1.12,2013-06-17 00:05:00,
2013-06-16 20:10:00,78.5,50.8,29.80,WSW,254,5.0,9.0,38,0.00,,,0.00,Wunderground v.1.12,2013-06-17 00:10:00,
2013-06-16 20:15:00,78.1,51.1,29.80,WNW,298,7.0,7.0,39,0.00,,,0.00,Wunderground v.1.12,2013-06-17 00:15:00,
2013-06-16 20:20:00,77.9,50.9,29.80,NW,304,7.0,7.0,39,0.00,,,0.00,Wunderground v.1.12,2013-06-17 00:20:00,
2013-06-16 20:25:00,77.6,50.7,29.80,West,260,0.0,8.0,39,0.00,,,0.00,Wunderground v.1.12,2013-06-17 00:25:00,
2013-06-16 20:30:00,77.2,51.0,29.80,West,278,5.0,5.0,40,0.00,,,0.00,Wunderground v.1.12,2013-06-17 00:30:00,
2013-06-16 20:35:00,77.0,50.8,29.80,West,266,5.0,6.0,40,0.00,,,0.00,Wunderground v.1.12,2013-06-17 00:35:00,
2013-06-16 20:40:00,76.5,50.4,29.80,West,272,5.0,5.0,40,0.00,,,0.00,Wunderground v.1.12,2013-06-17 00:40:00,
2013-06-16 20:45:00,76.3,50.2,29.80,West,279,1.0,4.0,40,0.00,,,0.00,Wunderground v.1.12,2013-06-17 00:45:00,
2013-06-16 20:50:00,76.0,50.6,29.80,WNW,283,0.0,5.0,41,0.00,,,0.00,Wunderground v.1.12,2013-06-17 00:50:00,
2013-06-16 20:55:00,75.8,51.1,29.80,West,273,4.0,4.0,42,0.00,,,0.00,Wunderground v.1.12,2013-06-17 00:55:00,
2013-06-16 21:00:00,75.4,50.7,29.81,West,277,1.0,5.0,42,0.00,,,0.00,Wunderground v.1.12,2013-06-17 01:00:00,
2013-06-16 21:05:00,75.1,51.1,29.81,West,281,4.0,4.0,43,0.00,,,0.00,Wunderground v.1.12,2013-06-17 01:05:00,
2013-06-16 21:10:00,74.6,51.9,29.81,West,277,5.0,5.0,45,0.00,,,0.00,Wunderground v.1.12,2013-06-17 01:10:00,
2013-06-16 21:15:00,74.2,51.5,29.81,WNW,300,1.0,3.0,45,0.00,,,0.00,Wunderground v.1.12,2013-06-17 01:15:00,
2013-06-16 21:20:00,73.9,51.2,29.81,WNW,298,0.0,2.0,45,0.00,,,0.00,Wunderground v.1.12,2013-06-17 01:20:00,
2013-06-16 21:25:00,73.5,51.4,29.81,WNW,298,0.0,1.0,46,0.00,,,0.00,Wunderground v.1.12,2013-06-17 01:25:00,
2013-06-16 21:30:00,73.2,51.8,29.81,WNW,298,0.0,2.0,47,0.00,,,0.00,Wunderground v.1.12,2013-06-17 01:30:00,
2013-06-16 21:35:00,72.7,51.3,29.81,WNW,298,0.0,1.0,47,0.00,,,0.00,Wunderground v.1.12,2013-06-17 01:35:00,
2013-06-16 21:40:00,72.3,51.5,29.81,WNW,295,0.0,1.0,48,0.00,,,0.00,Wunderground v.1.12,2013-06-17 01:40:00,
2013-06-16 21:45:00,71.8,51.6,29.81,WNW,295,1.0,1.0,49,0.00,,,0.00,Wunderground v.1.12,2013-06-17 01:45:00,
2013-06-16 21:50:00,71.5,51.9,29.81,WNW,295,0.0,0.0,50,0.00,,,0.00,Wunderground v.1.12,2013-06-17 01:50:00,
2013-06-16 21:55:00,70.9,51.9,29.81,WNW,295,0.0,0.0,51,0.00,,,0.00,Wunderground v.1.12,2013-06-17 01:55:00,
2013-06-16 22:00:00,70.6,52.1,29.81,WNW,295,0.0,0.0,52,0.00,,,0.00,Wunderground v.1.12,2013-06-17 02:00:00,
2013-06-16 22:05:00,70.1,51.7,29.81,WNW,295,0.0,0.0,52,0.00,,,0.00,Wunderground v.1.12,2013-06-17 02:05:00,
2013-06-16 22:10:00,69.6,52.2,29.81,WNW,295,0.0,0.0,54,0.00,,,0.00,Wunderground v.1.12,2013-06-17 02:10:00,
2013-06-16 22:15:00,69.1,52.2,29.81,WNW,295,0.0,0.0,55,0.00,,,0.00,Wunderground v.1.12,2013-06-17 02:15:00,
2013-06-16 22:20:00,68.6,52.3,29.81,WNW,295,0.0,0.0,56,0.00,,,0.00,Wunderground v.1.12,2013-06-17 02:20:00,
2013-06-16 22:25:00,68.1,52.3,29.81,WNW,295,0.0,0.0,57,0.00,,,0.00,Wunderground v.1.12,2013-06-17 02:25:00,
2013-06-16 22:30:00,67.6,52.3,29.81,WNW,295,0.0,0.0,58,0.00,,,0.00,Wunderground v.1.12,2013-06-17 02:30:00,
2013-06-16 22:35:00,67.1,52.3,29.81,WNW,295,0.0,0.0,59,0.00,,,0.00,Wunderground v.1.12,2013-06-17 02:35:00,
2013-06-16 22:40:00,66.6,52.3,29.81,WNW,295,0.0,0.0,60,0.00,,,0.00,Wunderground v.1.12,2013-06-17 02:40:00,
2013-06-16 22:45:00,66.1,52.7,29.82,WNW,295,0.0,0.0,62,0.00,,,0.00,Wunderground v.1.12,2013-06-17 02:45:00,
2013-06-16 22:50:00,65.8,53.3,29.82,WNW,295,0.0,0.0,64,0.00,,,0.00,Wunderground v.1.12,2013-06-17 02:50:00,
2013-06-16 22:55:00,65.3,52.8,29.82,WNW,295,0.0,0.0,64,0.00,,,0.00,Wunderground v.1.12,2013-06-17 02:55:00,
2013-06-16 23:00:00,65.0,52.9,29.82,WNW,295,0.0,0.0,65,0.00,,,0.00,Wunderground v.1.12,2013-06-17 03:00:00,
2013-06-16 23:05:00,64.7,53.1,29.82,WNW,295,0.0,0.0,66,0.00,,,0.00,Wunderground v.1.12,2013-06-17 03:05:00,
2013-06-16 23:10:00,64.2,53.0,29.82,WNW,295,0.0,0.0,67,0.00,,,0.00,Wunderground v.1.12,2013-06-17 03:10:00,
2013-06-16 23:15:00,63.9,53.5,29.82,WNW,295,0.0,0.0,69,0.00,,,0.00,Wunderground v.1.12,2013-06-17 03:15:00,
2013-06-16 23:20:00,63.5,53.1,29.82,WNW,295,0.0,0.0,69,0.00,,,0.00,Wunderground v.1.12,2013-06-17 03:20:00,
2013-06-16 23:25:00,63.2,53.3,29.82,WNW,295,0.0,0.0,70,0.00,,,0.00,Wunderground v.1.12,2013-06-17 03:25:00,
2013-06-16 23:30:00,63.1,53.5,29.82,WNW,295,0.0,0.0,71,0.00,,,0.00,Wunderground v.1.12,2013-06-17 03:30:00,
2013-06-16 23:35:00,62.9,53.4,29.82,WNW,295,0.0,0.0,71,0.00,,,0.00,Wunderground v.1.12,2013-06-17 03:35:00,
2013-06-16 23:40:00,62.6,53.4,29.82,WNW,295,0.0,0.0,72,0.00,,,0.00,Wunderground v.1.12,2013-06-17 03:40:00,
2013-06-16 23:45:00,62.4,53.6,29.83,WNW,295,0.0,0.0,73,0.00,,,0.00,Wunderground v.1.12,2013-06-17 03:45:00,
2013-06-16 23:50:00,62.1,53.3,29.83,WNW,295,0.0,0.0,73,0.00,,,0.00,Wunderground v.1.12,2013-06-17 03:50:00,
2013-06-16 23:55:00,62.0,53.6,29.83,WNW,295,0.0,0.0,74,0.00,,,0.00,Wunderground v.1.12,2013-06-17 03:55:00,